Domov               UVHVVR             MKGP            O straneh              
ZDRAVSTVENO VARSTVO RASTLIN
  MREŽA AGROMET. POSTAJ
 ► PROGNOSTIČNA OBVESTILA
AGROMETEOROLOŠKI PODATKI -
ARSO
OBVLADOVANJE TVEGANJ ZARADI
NEUGODNIH VREMENSKIH RAZMER
  ► NARAVNE NESREČE
  ► SUŠA/MOČA
  ► NAMAKANJE
  ► ŽLED (gozdarstvo)
KARTOGRAFSKI PRIKAZI
SPLETNE POVEZAVE
PROJEKTI IN PUBLIKACIJE

AGROMETEOROLOŠKA MREŽA: VREMENSKE POSTAJE IN FENOLOŠKA OPAZOVANJA

Pregled podatkov za lokacijo Braslovče (Pšaker), meteorološka postaja 39323

Pregled senzorjev na lokaciji

ID Ime Zadnja
vrednost
Datum
zadnje
spremembe
Tip
senzorja
1914 Temperatura 2 m ( °C) 22,34 °C 17.10.2017 14:29 50YA
1915 Relativna vlaga 2 m (% RH) 52,41 % RH 17.10.2017 14:30 50YA
2040 Padavine 0.2 mm (mm) 0 mm 17.10.2017 14:30 Rain-O-Matic
2041 Omočenost lista (U) 0 U 17.10.2017 14:30 A730WET

Pregled podatkov zadnjih 24 ur

Zap.
št.
Datum in čas Braslovče (Pšaker)
Omočenost
lista
Padavine
0.2
mm
Relativna
vlaga
2
m
Temperatura
2
m
0 17.10.2017 13:30 0 0 52,41 22,34
1 17.10.2017 13:00 0 0 52,5 22,56
2 17.10.2017 12:30 0 0 55,51 21,88
3 17.10.2017 12:00 0 0 52,36 21,47
4 17.10.2017 11:30 9 0 55,92 20,56
5 17.10.2017 11:00 10 0 60,32 19,58
6 17.10.2017 10:30 10 0 64,88 17,95
7 17.10.2017 10:00 10 0 67,67 17,36
8 17.10.2017 09:30 10 0 72,06 16,56
9 17.10.2017 09:00 10 0 82,3 14,21
10 17.10.2017 08:30 10 0 90,84 11,7
11 17.10.2017 08:00 10 0 99,54 9,43
12 17.10.2017 07:30 10 0 99,93 7,37
13 17.10.2017 07:00 10 0 99,93 6,67
14 17.10.2017 06:30 10 0 99,93 6,81
15 17.10.2017 06:00 10 0 99,93 6,98
16 17.10.2017 05:30 10 0 99,93 7,08
17 17.10.2017 05:00 10 0 99,93 7,28
18 17.10.2017 04:30 10 0 99,93 7,33
19 17.10.2017 04:00 10 0 99,93 7,55
20 17.10.2017 03:30 10 0 99,93 7,72
21 17.10.2017 03:00 10 0 99,93 7,86
22 17.10.2017 02:30 10 0 99,93 8,13
23 17.10.2017 02:00 10 0 99,93 8,23
24 17.10.2017 01:30 10 0 99,93 8,5
25 17.10.2017 01:00 10 0 99,93 8,72
26 17.10.2017 00:30 10 0 99,93 8,96
27 17.10.2017 00:00 10 0 99,93 9,28
28 16.10.2017 23:30 10 0 99,93 9,67
29 16.10.2017 23:00 10 0 99,93 9,91
30 16.10.2017 22:30 10 0 99,93 10,23
31 16.10.2017 22:00 10 0 99,93 10,57
32 16.10.2017 21:30 10 0 99,93 10,92
33 16.10.2017 21:00 10 0 99,78 11,36
34 16.10.2017 20:30 10 0 98,78 11,75
35 16.10.2017 20:00 10 0 98 12,23
36 16.10.2017 19:30 5 0 97,46 12,58
37 16.10.2017 19:00 1 0 96,09 13,06
38 16.10.2017 18:30 0 0 93,99 13,58
39 16.10.2017 18:00 0 0 89,82 14,46
40 16.10.2017 17:30 0 0 84,91 15,43
41 16.10.2017 17:00 0 0 82,78 16,09
42 16.10.2017 16:30 0 0 77,83 17,17
43 16.10.2017 16:00 0 0 71,04 18,41
44 16.10.2017 15:30 0 0 64,35 19,9
© 2011 Ministrstvo za kmetijstvo, gozdarstvo in prehrano. Vse pravice pridržane.